Regional Weather Roundup
Issued by NWS Bismarck, ND

Home | Current Version | Previous Version | Text Only | Print | Product List | Glossary On
Versions: 1 2 3 4 5 6 7 8 9 10 11 12 13 14 15 16 17 18 19 20 21 22 23 24 25 26 27 28 29 30 31 32 33 34 35 36 37 38 39 40 41 42 43 44 45 46 47 48 49 50
340
ASUS43 KBIS 211010
RWRBIS

NWR BROADCAST TEXT
NATIONAL WEATHER SERVICE BISMARCK ND
500 AM CDT FRI JUL 21 2017

NOTE: "FAIR" INDICATES FEW OR NO CLOUDS BELOW 12,000 FEET WITH NO
SIGNIFICANT WEATHER AND/OR OBSTRUCTIONS TO VISIBILITY.


CITY           SKY/WX    TMP DP  RH WIND       PRES   REMARKS
WILLISTON      CLOUDY    69  58  67 N14       29.82S
MINOT          CLOUDY    68  57  68 SE6       29.77R
MINOT AFB      CLOUDY    65  59  79 N7        29.78R
BISMARCK       MOCLDY    68  63  84 CALM      29.79S
DICKINSON      CLOUDY    69  62  78 SW16      29.79R
GARRISON         N/A     64  59  83 SE9       29.78F
HETTINGER ARPT CLOUDY    68  60  75 S8        29.86R
JAMESTOWN      CLOUDY    67  65  93 E6        29.80S
HAZEN          FAIR      59  59 100 CALM      29.80S
LINTON         FAIR     N/A N/A N/A S10       29.82R
MANDAN         FAIR      66  63  88 CALM      29.80R
STANLEY        FAIR      64  61  88 NW8       29.86R
TIOGA          FAIR      64  61  88 N16       29.84F
WATFORD CITY   FAIR      64  61  88 VRB6G18   29.79R
$$

CITY           SKY/WX    TMP DP  RH WIND       PRES   REMARKS
GRAND FORKS    MOCLDY    71  67  87 SE8       29.82F
GRAND FORKS AF CLOUDY    69  65  89 SE6       29.83F
DEVILS LAKE    PTCLDY    71  65  81 E9        29.82F
FARGO          CLOUDY    75  69  81 S14G20    29.82F
CAVALIER       FAIR      64  61  88 CALM      29.84F
GRAFTON        FAIR      66  64  94 E8        29.85S
GWINNER        SUNNY     73  68  83 E10       29.81S HAZE
LANGDON        FAIR      63  63 100 E9        29.86F
ROLLA            N/A     59  59 100 N5        29.86S
$$

CITY           SKY/WX    TMP DP  RH WIND       PRES   REMARKS
ABERDEEN       CLOUDY    69  65  86 S6        29.84F
MOBRIDGE       CLOUDY    73  64  73 S16       29.78F
BUFFALO          N/A     66  62  87 S12       29.82R
RAPID CITY     CLOUDY    64  63  96 NW7       29.90F
GLASGOW        CLOUDY    68  53  58 E14       29.80S
SIDNEY         CLOUDY    68  59  73 VRB7      29.79R
WOLF POINT     PTCLDY    68  56  65 E17       29.79S
GLENDIVE       CLOUDY    71  58  63 S12       29.77S
MILES CITY     MOCLDY    72  49  44 S8        29.77S
BAKER          PTCLDY    67  59  75 SE7       29.85R
$$

CITY           SKY/WX    TMP DP  RH WIND       PRES   REMARKS
BILLINGS       PTCLDY    69  44  40 SW10      29.94R
GREAT FALLS    CLEAR     59  25  27 SW9       29.99R
REGINA         MOCLDY    64  59  82 E16       29.80F
ESTEVAN        LGT RAIN  63  59  88 N29       29.79F
$$





USA.gov is the U.S. government's official web portal to all federal, state and local government web resources and services.